Location: Quedlinburg
(51.7921°N, 11.1414°E)
Time: 00:22:01
(UTC+01:00)

BUGSAT 1 - Visible Passes

Search period start: 14 March 2026 00:00
Search period end: 24 March 2026 00:00
Orbit: 502 x 543 km, 98.0° (Epoch: 13 March)

Date Brightness Start Highest point End Pass type
(mag) Time Alt. Az. Time Alt. Az. Time Alt. Az.
17 Mar ? 22:48:57 11° NNW 22:48:57 11° NNW 22:49:05 10° NNW visible
18 Mar ? 22:35:51 12° N 22:35:51 12° N 22:36:10 10° N visible
19 Mar ? 22:22:45 13° N 22:22:45 13° N 22:23:12 10° N visible
20 Mar ? 22:09:38 13° N 22:09:38 13° N 22:10:10 10° N visible
21 Mar ? 21:56:31 13° NNE 21:56:31 13° NNE 21:57:04 10° N visible
22 Mar ? 21:43:23 12° NNE 21:43:23 12° NNE 21:43:52 10° NNE visible
22 Mar ? 23:18:30 11° NNW 23:18:30 11° NNW 23:18:41 10° NNW visible
23 Mar ? 21:30:14 11° NNE 21:30:14 11° NNE 21:30:32 10° NNE visible
23 Mar ? 23:05:21 13° NNW 23:05:21 13° NNW 23:05:50 10° NNW visible
